Date,TemperatureHighF,TemperatureAvgF,TemperatureLowF,DewpointHighF,DewpointAvgF,DewpointLowF,HumidityHigh,HumidityAvg,HumidityLow,PressureMaxIn,PressureMinIn,WindSpeedMaxMPH,WindSpeedAvgMPH,GustSpeedMaxMPH,PrecipitationSumIn
2012-1-1,66.7,56.2,41.0,65.0,42.0,30.0,96,62,31,30.56,30.09,5,1,9,0.00
2012-1-2,57.5,43.8,34.5,33.0,26.8,20.0,81,56,23,30.71,30.55,4,1,7,0.00
2012-1-3,58.1,41.2,27.4,30.0,22.8,14.0,88,55,20,30.64,30.36,5,1,8,0.00
2012-1-4,70.4,48.9,33.8,52.0,41.9,31.0,96,79,49,30.36,30.23,6,1,9,0.00
2012-1-5,72.4,53.6,39.0,52.0,44.9,38.0,96,76,45,30.33,30.17,4,1,6,0.00
2012-1-6,75.9,62.9,48.1,62.0,57.1,47.0,98,83,54,30.11,29.96,10,3,14,0.00
2012-1-7,73.5,60.2,51.7,62.0,56.5,50.0,98,88,60,30.06,29.96,5,1,7,0.00
2012-1-8,72.5,61.6,50.7,64.0,58.3,49.0,97,89,73,30.12,30.01,2,0,5,0.41
2012-1-9,64.4,59.0,52.9,64.0,58.3,52.0,98,97,96,30.11,29.93,7,1,10,2.92
2012-1-10,52.9,49.1,46.3,52.0,47.0,43.0,98,93,85,29.93,29.82,4,1,8,0.01
2012-1-11,69.4,54.5,40.1,47.0,44.4,39.0,97,71,43,29.86,29.69,6,2,8,0.00
2012-1-12,52.4,41.0,26.9,46.0,25.8,17.0,83,57,32,30.26,29.76,6,2,11,0.00
2012-1-13,54.4,36.4,24.6,29.0,21.9,15.0,87,62,23,30.36,30.26,4,0,5,0.00
2012-1-14,65.9,45.5,28.2,33.0,29.0,25.0,90,58,24,30.42,30.31,7,1,9,0.00
2012-1-15,71.1,51.2,29.9,54.0,41.6,28.0,97,73,41,30.42,30.23,9,3,13,0.00
2012-1-16,75.4,66.5,59.0,65.0,61.1,54.0,93,83,64,30.24,30.00,11,6,17,0.00
2012-1-17,74.5,64.0,43.5,68.0,56.5,34.0,96,78,46,30.27,29.98,9,2,10,0.16
2012-1-18,62.5,46.5,34.5,40.0,32.4,28.0,82,61,32,30.33,30.08,3,1,6,0.00
2012-1-19,66.8,55.0,39.6,60.0,52.1,37.0,97,90,80,30.08,29.89,8,2,11,0.00
2012-1-20,79.3,68.8,61.0,66.0,63.5,61.0,98,85,60,29.91,29.78,11,4,18,0.00
2012-1-21,67.2,61.4,53.5,65.0,56.4,49.0,98,84,60,29.99,29.85,4,1,6,0.00
2012-1-22,79.4,67.4,53.6,68.0,63.0,50.0,98,86,66,29.90,29.71,14,4,17,0.00
2012-1-23,69.5,56.6,45.5,64.0,43.1,34.0,94,64,29,30.14,29.89,6,1,6,0.00
2012-1-24,64.1,51.3,42.5,56.0,46.2,39.0,96,84,49,30.12,29.96,5,1,8,0.08
2012-1-25,69.5,60.3,51.6,65.0,58.8,51.0,98,95,85,29.96,29.69,8,2,18,1.50
2012-1-26,55.5,50.3,40.0,51.0,47.7,39.0,97,91,78,30.07,29.86,7,1,10,0.00
2012-1-27,69.3,50.4,34.5,47.0,38.0,34.0,98,69,28,30.13,29.98,9,2,12,0.01
2012-1-28,60.0,49.3,38.0,45.0,35.5,28.0,94,64,32,30.45,30.11,7,1,10,0.00
2012-1-29,66.6,46.8,32.1,37.0,29.9,23.0,87,59,21,30.51,30.36,6,1,6,0.00
2012-1-30,71.7,52.6,35.0,54.0,43.5,33.0,96,74,38,30.37,30.19,9,2,13,0.00
2012-1-31,69.7,61.6,54.4,65.0,59.5,52.0,97,93,80,30.20,30.06,5,1,9,1.29
2012-2-1,78.2,68.8,64.0,68.0,64.9,63.0,98,88,63,30.14,30.02,5,1,7,0.00
2012-2-2,69.2,66.2,64.6,66.0,64.3,63.0,98,94,85,30.14,30.03,3,0,7,0.00
2012-2-3,77.2,68.8,63.8,67.0,64.3,62.0,96,86,65,30.08,29.97,7,2,11,0.59
2012-2-4,67.7,59.3,49.7,66.0,56.2,45.0,95,89,76,30.23,29.96,3,1,8,1.58
2012-2-5,52.1,46.1,40.6,45.0,38.9,37.0,85,76,63,30.37,30.22,4,2,8,0.00
2012-2-6,58.4,46.4,35.8,43.0,39.0,34.0,93,77,53,30.38,30.21,4,0,6,0.00
2012-2-7,60.2,50.5,44.0,47.0,44.1,40.0,90,79,57,30.34,30.20,3,0,4,0.00
2012-2-8,58.7,47.4,39.2,45.0,40.7,38.0,95,80,48,30.45,30.33,5,1,8,0.00
2012-2-9,57.9,47.0,38.2,43.0,38.9,36.0,92,75,49,30.37,30.18,5,1,9,0.00
2012-2-10,56.2,49.0,42.8,50.0,45.0,39.0,94,86,71,30.31,30.11,3,0,8,0.05
2012-2-11,49.1,40.3,31.7,39.0,24.0,16.0,86,56,28,30.60,30.31,6,2,13,0.00
2012-2-12,50.7,40.5,29.3,24.0,18.3,13.0,66,43,22,30.63,30.31,7,1,10,0.00
2012-2-13,47.3,43.0,37.7,46.0,36.8,25.0,95,81,52,30.31,29.89,4,1,7,0.51
2012-2-14,54.1,48.3,45.7,50.0,46.6,44.0,96,93,85,30.06,29.96,4,0,4,0.01
2012-2-15,64.5,57.5,46.6,63.0,55.9,45.0,96,94,87,30.05,29.89,7,1,10,1.50
2012-2-16,63.3,57.5,51.7,59.0,54.6,50.0,96,90,74,30.22,30.05,5,0,6,0.00
2012-2-17,65.1,55.9,50.7,55.0,51.6,49.0,94,86,69,30.17,29.98,3,0,9,0.02
2012-2-18,56.2,52.6,47.3,52.0,50.9,45.0,95,93,85,29.99,29.74,6,2,11,1.46
2012-2-19,61.6,51.0,46.3,48.0,44.8,43.0,93,80,54,30.16,29.97,7,1,9,0.00
2012-2-20,61.3,53.3,44.1,53.0,48.1,42.0,92,83,65,30.18,30.05,7,2,14,0.00
2012-2-21,77.4,61.9,47.3,55.0,50.8,41.0,98,72,34,30.20,29.99,7,2,10,0.06
2012-2-22,81.9,68.1,56.6,63.0,58.1,54.0,93,73,42,30.01,29.67,8,4,14,0.00
2012-2-23,87.3,72.6,63.3,66.0,61.8,51.0,94,73,30,29.67,29.50,15,5,17,0.00
2012-2-24,69.0,55.2,42.5,65.0,30.0,17.0,87,40,19,30.39,29.68,9,2,17,0.00
2012-2-25,61.0,47.4,34.8,36.0,28.4,18.0,83,53,19,30.47,30.27,3,0,6,0.00
2012-2-26,71.0,53.7,35.3,51.0,40.5,32.0,90,65,37,30.27,30.10,8,2,11,0.00
2012-2-27,73.0,63.4,54.6,57.0,53.5,50.0,84,71,51,30.32,30.20,5,1,8,0.00
2012-2-28,77.9,68.3,61.5,67.0,62.6,57.0,92,82,66,30.20,30.00,11,3,13,0.00
2012-2-29,79.3,70.9,64.8,68.0,65.1,62.0,93,82,61,30.04,29.93,8,2,14,0.00
2012-3-1,82.8,71.5,67.4,68.0,66.1,64.0,94,83,62,29.96,29.73,8,3,13,0.00
2012-3-2,81.8,71.0,58.2,68.0,62.8,44.0,91,76,52,29.84,29.68,8,3,12,0.00
2012-3-3,63.2,54.4,44.5,45.0,33.8,20.0,75,49,19,30.18,29.81,8,2,10,0.00
2012-3-4,74.4,55.5,34.5,38.0,31.4,24.0,90,48,16,30.26,30.15,7,1,11,0.00
2012-3-5,81.0,61.1,40.7,46.0,38.3,32.0,91,50,17,30.40,30.25,6,1,9,0.00
2012-3-6,74.7,61.3,48.2,55.0,50.5,45.0,93,70,41,30.32,30.13,11,4,19,0.00
2012-3-7,77.3,68.3,62.6,66.0,60.4,55.0,93,77,54,30.14,30.02,9,4,22,0.04
2012-3-8,76.3,69.6,54.0,69.0,65.5,52.0,94,87,74,30.16,29.98,7,3,11,4.23
2012-3-9,53.7,47.1,44.2,52.0,44.4,42.0,94,90,81,30.42,30.18,8,2,11,0.34
2012-3-10,66.1,55.2,48.8,52.0,46.4,40.0,93,73,52,30.34,30.14,5,1,9,0.44
2012-3-11,64.4,60.4,53.0,63.0,59.0,51.0,96,95,90,30.16,29.99,5,1,11,2.76
2012-3-12,83.4,68.5,60.1,66.0,62.0,59.0,96,82,49,30.13,30.04,6,2,10,0.00
2012-3-13,83.0,72.8,65.6,69.0,66.2,64.0,94,81,60,30.18,30.09,6,2,8,0.00
2012-3-14,86.0,73.2,66.0,67.0,64.5,61.0,93,76,46,30.21,30.10,5,2,13,0.00
2012-3-15,84.6,73.7,67.1,67.0,64.6,62.0,93,75,50,30.23,30.10,7,2,10,0.00
2012-3-16,85.7,72.8,65.0,66.0,63.2,60.0,94,74,47,30.20,30.06,7,2,13,0.00
2012-3-17,85.8,74.3,67.2,66.0,63.7,59.0,92,72,41,30.13,30.01,8,3,14,0.00
2012-3-18,84.0,73.3,66.7,68.0,65.8,64.0,94,78,52,30.09,29.97,9,2,15,0.00
2012-3-19,82.1,74.0,70.7,67.0,65.5,64.0,85,75,54,29.97,29.77,12,4,22,0.00
2012-3-20,72.3,62.7,56.7,65.0,59.1,55.0,94,88,75,29.86,29.70,8,1,16,1.66
2012-3-21,74.5,59.8,50.9,56.0,50.8,43.0,95,76,32,29.97,29.81,5,1,8,0.07
2012-3-22,84.2,66.2,51.2,55.0,50.4,46.0,91,61,27,30.00,29.86,7,2,9,0.00
2012-3-23,83.8,64.5,50.0,56.0,49.9,42.0,90,64,28,30.07,29.95,3,0,9,0.00
2012-3-24,82.4,65.7,50.8,57.0,52.2,49.0,94,67,32,30.08,29.96,2,0,5,0.00
2012-3-25,86.5,67.5,52.6,62.0,54.3,49.0,95,68,29,30.10,29.99,4,0,5,0.00
2012-3-26,89.0,69.9,53.7,62.0,55.8,51.0,95,66,30,30.11,29.99,4,0,7,0.00
2012-3-27,86.0,68.4,56.3,62.0,57.9,54.0,94,72,39,30.12,30.03,5,1,7,0.00
2012-3-28,83.7,68.8,56.7,65.0,59.2,55.0,94,74,41,30.12,29.97,5,1,8,0.00
2012-3-29,75.8,67.1,64.2,68.0,63.9,61.0,94,90,71,29.99,29.88,2,0,5,0.79
2012-3-30,83.4,70.7,63.4,70.0,65.3,62.0,95,84,57,29.92,29.81,4,0,5,0.04
2012-3-31,92.1,75.3,61.7,69.0,65.7,60.0,95,75,43,29.94,29.79,4,1,7,0.00
2012-4-1,92.3,77.3,66.9,69.0,66.0,63.0,93,71,40,29.88,29.74,6,2,8,0.00
2012-4-2,74.7,67.6,63.9,70.0,65.0,62.0,94,91,79,29.79,29.70,8,1,15,0.78
2012-4-3,87.5,74.4,66.0,73.0,68.6,64.0,95,83,60,29.89,29.74,7,1,12,0.00
2012-4-4,84.6,71.0,62.2,70.0,63.3,59.0,94,78,44,29.92,29.75,3,0,7,0.09
2012-4-5,82.5,70.5,61.0,65.0,60.9,56.0,95,74,43,29.91,29.76,4,0,5,0.00
2012-4-6,82.1,67.3,54.4,60.0,55.8,51.0,94,70,37,30.06,29.93,3,0,5,0.00
2012-4-7,87.0,69.8,56.6,61.0,57.8,54.0,93,69,37,30.19,30.06,3,0,6,0.00
2012-4-8,80.3,68.9,58.3,64.0,60.7,56.0,95,77,54,30.28,30.14,3,0,4,0.00
2012-4-9,85.3,69.9,58.8,63.0,60.3,57.0,94,74,43,30.21,30.06,3,0,5,0.00
2012-4-10,87.0,77.6,64.6,66.0,63.6,61.0,88,64,44,30.14,30.03,2,0,5,0.00
2012-4-11,89.2,72.5,61.1,66.0,61.9,58.0,94,73,37,30.14,30.03,3,0,4,0.00
2012-4-12,80.0,68.2,60.8,66.0,61.2,56.0,90,79,60,30.13,30.01,4,1,8,0.00
2012-4-13,84.8,73.6,65.0,67.0,64.1,61.0,94,74,49,30.08,29.94,8,1,12,0.00
2012-4-14,88.1,75.9,67.9,68.0,65.4,63.0,92,72,43,30.00,29.87,8,3,23,0.00
2012-4-15,87.5,74.5,60.5,70.0,65.9,58.0,94,76,53,29.93,29.79,7,3,14,1.00
2012-4-16,64.3,61.8,60.0,62.0,59.8,58.0,95,93,85,30.16,29.91,3,0,6,0.32
2012-4-17,77.8,66.2,59.1,64.0,59.6,55.0,94,81,47,30.22,30.13,4,1,7,0.01
2012-4-18,80.8,63.9,50.9,57.0,52.4,47.0,95,71,32,30.22,30.04,4,0,7,0.02
2012-4-19,85.4,67.9,51.0,61.0,54.9,49.0,95,68,36,30.06,29.82,8,1,8,0.00
2012-4-20,75.2,63.4,55.1,64.0,59.4,53.0,94,87,65,29.95,29.80,3,0,10,0.58
2012-4-21,73.3,60.1,52.5,53.0,48.9,44.0,91,69,36,30.02,29.91,5,1,11,0.00
2012-4-22,84.0,64.9,47.5,56.0,50.3,44.0,95,64,33,30.13,29.98,5,0,9,0.00
2012-4-23,74.5,60.5,47.7,48.0,44.7,41.0,87,59,31,30.23,30.06,4,0,9,0.00
2012-4-24,87.5,66.3,47.3,59.0,50.6,45.0,94,63,28,30.12,29.92,6,1,8,0.00
2012-4-25,91.7,73.2,57.8,67.0,61.3,56.0,94,70,38,29.99,29.83,7,3,10,0.00
2012-4-26,91.2,75.0,64.8,69.0,65.6,63.0,94,75,46,29.95,29.86,6,2,10,0.00
2012-4-27,86.4,75.1,68.1,69.0,65.6,63.0,90,74,51,29.93,29.84,6,2,11,0.00
2012-4-28,90.7,76.2,67.8,70.0,65.2,63.0,89,71,41,29.96,29.88,7,2,9,0.00
2012-4-29,87.9,76.3,67.3,70.0,66.6,63.0,92,74,47,30.05,29.95,7,1,10,0.00
2012-4-30,89.1,76.9,70.0,71.0,68.5,67.0,92,76,52,30.08,29.94,5,1,9,0.00
2012-5-1,90.2,77.5,68.1,70.0,67.0,66.0,94,73,46,30.02,29.89,6,1,11,0.00
2012-5-2,90.4,77.2,68.9,72.0,68.1,66.0,93,76,48,29.96,29.84,4,0,5,0.00
2012-5-3,89.3,76.7,67.7,72.0,69.1,66.0,94,79,52,30.02,29.89,3,0,5,0.00
2012-5-4,90.1,77.5,68.3,72.0,69.3,66.0,95,78,53,30.02,29.91,4,1,9,0.00
2012-5-5,92.1,79.5,69.9,71.0,69.6,68.0,93,74,48,30.03,29.81,4,1,8,0.00
2012-5-6,91.9,78.3,72.0,74.0,71.2,69.0,93,80,52,29.93,29.84,4,1,6,0.12
2012-5-7,91.9,78.8,70.1,72.0,69.2,65.0,95,75,42,29.93,29.80,3,1,6,0.00
2012-5-8,82.9,70.1,63.0,69.0,64.5,61.0,94,83,55,30.02,29.84,10,1,23,0.21
2012-5-9,82.1,71.8,63.4,66.0,62.9,59.0,94,75,47,30.02,29.92,6,1,8,0.00
2012-5-10,83.6,70.7,56.9,62.0,57.8,55.0,96,67,39,30.00,29.86,4,0,8,0.00
2012-5-11,77.5,69.5,65.8,66.0,63.3,58.0,92,81,65,29.99,29.78,5,1,9,0.40
2012-5-12,79.4,68.7,63.8,67.0,64.0,62.0,94,85,59,30.12,29.95,3,0,6,1.02
2012-5-13,81.5,69.2,60.5,64.0,60.5,57.0,95,76,43,30.16,30.04,5,0,7,0.01
2012-5-14,85.4,70.5,58.6,66.0,61.1,57.0,95,75,40,30.11,29.98,2,0,5,0.01
2012-5-15,75.8,66.1,61.2,67.0,62.0,59.0,94,87,68,30.10,29.99,4,0,6,0.41
2012-5-16,86.0,71.2,61.2,66.0,61.8,59.0,95,75,41,30.10,29.97,2,0,6,0.00
2012-5-17,89.6,73.5,59.8,68.0,61.0,57.0,95,69,36,30.05,29.93,2,0,5,0.01
2012-5-18,93.0,76.0,61.5,68.0,61.4,58.0,95,65,32,30.00,29.90,4,1,8,0.00
2012-5-19,91.1,75.2,59.4,68.0,61.7,57.0,95,67,39,30.02,29.93,4,1,8,0.00
2012-5-20,89.9,75.1,61.9,69.0,64.2,60.0,95,72,41,30.14,30.00,2,0,5,0.00
2012-5-21,91.0,77.2,65.1,70.0,66.3,63.0,94,72,41,30.13,30.00,4,0,7,0.00
2012-5-22,91.8,77.4,64.0,68.0,64.9,61.0,94,69,37,30.04,29.85,2,0,5,0.00
2012-5-23,95.6,79.1,68.2,70.0,66.0,62.0,92,67,35,29.86,29.71,5,2,10,0.00
2012-5-24,93.0,78.5,67.2,71.0,67.8,65.0,92,72,45,29.82,29.71,7,2,14,0.00
2012-5-25,96.2,81.4,71.1,73.0,70.5,69.0,93,71,44,30.02,29.82,5,2,13,0.00
2012-5-26,95.1,80.5,70.9,72.0,68.5,63.0,94,70,34,30.10,29.98,8,1,8,0.00
2012-5-27,96.4,80.2,66.6,72.0,66.1,61.0,94,66,36,30.04,29.91,7,1,10,0.00
2012-5-28,96.0,78.7,66.1,72.0,66.8,64.0,94,70,36,29.98,29.83,3,0,8,0.00
2012-5-29,95.4,81.1,70.2,72.0,69.3,67.0,92,70,40,29.96,29.83,3,1,8,0.00
2012-5-30,95.3,81.1,70.6,71.0,69.1,65.0,94,70,41,29.99,29.74,4,0,6,0.00
2012-5-31,86.8,75.6,65.6,72.0,67.8,63.0,94,78,47,29.93,29.75,4,0,7,0.26
2012-6-1,89.1,73.6,60.4,66.0,59.1,52.0,91,65,30,30.01,29.90,5,0,9,0.00
2012-6-2,98.3,79.0,62.2,72.0,65.7,58.0,90,67,36,30.02,29.87,5,1,8,0.00
2012-6-3,99.1,82.6,69.7,74.0,70.8,68.0,94,70,40,29.98,29.87,6,1,8,0.00
2012-6-4,94.8,81.7,71.8,74.0,70.8,66.0,94,72,39,29.95,29.79,3,1,6,0.00
2012-6-5,98.6,83.0,71.6,75.0,71.7,68.0,94,72,37,29.86,29.70,3,0,8,0.00
2012-6-6,94.9,79.9,70.0,76.0,71.3,67.0,92,76,51,29.95,29.76,4,1,14,0.06
2012-6-7,87.3,76.4,66.2,72.0,67.7,64.0,94,76,57,29.96,29.87,4,1,10,0.05
2012-6-8,90.0,78.2,69.8,70.0,66.7,64.0,89,69,47,29.98,29.84,4,1,11,0.00
2012-6-9,91.1,78.2,67.5,72.0,68.5,65.0,94,74,47,29.90,29.75,3,0,9,0.00
2012-6-10,95.8,81.9,70.3,74.0,70.7,68.0,94,71,43,29.87,29.78,3,1,7,0.00
2012-6-11,100.4,85.6,75.9,76.0,74.4,73.0,92,72,41,29.98,29.85,6,2,10,0.00
2012-6-12,83.3,75.2,68.2,77.0,71.6,66.0,94,88,77,30.10,29.98,3,0,7,0.08
2012-6-13,94.3,78.3,64.8,75.0,69.4,63.0,95,76,45,30.07,29.90,5,0,10,0.01
2012-6-14,95.3,78.3,68.3,76.0,70.6,65.0,94,78,45,30.02,29.92,5,1,10,0.04
2012-6-15,97.6,82.0,72.3,76.0,70.9,66.0,94,72,42,30.04,29.93,4,0,11,0.00
2012-6-16,87.3,75.5,69.3,75.0,68.2,-99.9,94,81,63,30.09,30.01,3,-12,20,1.35
2012-6-17,90.8,78.2,68.0,73.0,68.8,66.0,95,75,45,30.09,29.90,3,0,8,0.01
2012-6-18,89.9,78.2,69.1,78.0,71.2,67.0,94,80,56,29.92,29.85,5,1,11,0.06
2012-6-19,89.1,77.7,72.3,75.0,71.6,69.0,93,82,59,30.01,29.91,6,1,11,0.05
2012-6-20,92.6,79.9,70.4,74.0,69.9,67.0,94,74,48,30.02,29.96,4,1,9,0.05
2012-6-21,91.6,78.5,66.7,73.0,67.2,61.0,94,71,41,30.07,29.93,3,0,7,0.00
2012-6-22,94.2,80.1,67.2,73.0,68.5,65.0,93,70,44,29.98,29.85,4,0,8,0.00
2012-6-23,97.1,82.0,67.8,73.0,69.2,66.0,94,68,41,29.94,29.87,3,0,7,0.00
2012-6-24,98.6,83.9,71.0,75.0,69.3,64.0,91,65,33,29.97,29.86,5,0,6,0.00
2012-6-25,101.4,85.4,70.7,73.0,69.4,66.0,90,63,32,29.91,29.76,4,0,8,0.00
2012-6-26,103.9,87.2,74.1,77.0,72.3,67.0,90,65,34,29.82,29.73,5,0,5,0.00
2012-6-27,101.8,85.4,70.7,72.0,63.9,-99.9,83,55,33,29.97,29.81,3,-10,9,0.00
2012-6-28,100.7,85.7,72.2,78.0,69.9,64.0,94,64,31,30.08,29.96,4,1,10,0.00
2012-6-29,99.7,84.7,71.7,77.0,69.5,65.0,93,64,33,30.05,29.91,5,1,10,0.00
2012-6-30,90.5,79.6,68.6,76.0,70.9,66.0,94,76,55,29.97,29.89,3,0,6,0.00
2012-7-1,87.9,76.5,71.6,75.0,71.3,69.0,94,84,63,30.09,29.95,6,1,10,0.26
2012-7-2,95.5,80.7,70.6,77.0,71.7,69.0,95,77,44,30.14,30.02,3,0,6,0.01
2012-7-3,95.2,82.3,73.7,76.0,72.3,67.0,92,74,40,30.09,29.96,2,0,5,0.00
2012-7-4,100.2,84.0,70.7,75.0,70.8,66.0,95,68,33,30.07,29.95,5,1,8,0.00
2012-7-5,100.4,83.8,70.4,75.0,69.9,65.0,95,67,34,30.08,29.95,3,0,7,0.00
2012-7-6,99.6,83.6,71.9,75.0,71.3,68.0,94,69,36,30.07,29.96,3,0,6,0.00
2012-7-7,95.3,79.4,72.2,75.0,71.5,69.0,92,78,46,30.06,29.97,5,0,14,0.01
2012-7-8,80.4,75.2,70.8,77.0,71.7,69.0,94,89,80,30.07,29.96,2,0,5,0.15
2012-7-9,89.5,75.5,72.2,76.0,72.1,70.0,95,90,61,30.02,29.91,3,0,8,0.40
2012-7-10,85.7,76.1,71.5,75.0,72.3,70.0,95,88,70,29.97,29.88,3,0,7,0.01
2012-7-11,89.9,77.5,72.2,75.0,72.4,70.0,95,85,61,29.98,29.91,6,1,7,0.00
2012-7-12,76.8,73.4,72.3,72.0,70.7,70.0,94,91,83,30.00,29.92,4,1,7,0.52
2012-7-13,82.5,75.0,71.8,74.0,71.4,70.0,95,89,71,30.04,29.95,2,0,5,0.26
2012-7-14,84.6,75.3,70.9,74.0,71.7,69.0,95,89,67,30.05,29.95,2,0,6,0.66
2012-7-15,88.3,77.5,70.5,76.0,72.4,69.0,95,85,63,30.07,29.95,3,0,6,0.04
2012-7-16,93.7,80.0,70.7,76.0,72.3,69.0,95,79,48,30.08,29.97,3,0,6,0.00
2012-7-17,96.1,82.0,71.3,78.0,73.2,69.0,95,77,45,30.04,29.93,4,0,7,0.00
2012-7-18,98.2,83.6,71.8,77.0,73.0,70.0,95,73,41,30.07,29.95,3,0,6,0.00
2012-7-19,98.3,84.7,74.1,77.0,73.8,71.0,94,72,42,30.14,30.00,4,0,7,0.00
2012-7-20,99.9,85.8,74.7,76.0,73.7,71.0,93,70,40,30.09,29.94,3,0,8,0.00
2012-7-21,103.3,84.5,70.2,77.0,72.7,67.0,92,71,38,30.02,29.87,5,1,13,0.71
2012-7-22,96.9,80.6,70.8,76.0,71.9,69.0,95,77,45,30.09,29.94,2,0,10,0.00
2012-7-23,93.0,78.5,74.8,78.0,74.0,72.0,93,87,54,30.16,30.08,2,0,7,0.80
2012-7-24,95.8,82.8,71.9,78.0,73.8,70.0,95,76,49,30.14,29.98,4,0,6,0.01
2012-7-25,99.4,85.6,74.3,78.0,74.7,72.0,94,72,45,30.04,29.91,5,1,8,0.00
2012-7-26,99.2,84.6,75.0,78.0,75.0,73.0,94,75,45,30.01,29.88,5,1,7,0.00
2012-7-27,99.0,84.9,73.0,78.0,74.0,71.0,94,72,43,30.09,29.98,3,1,6,0.00
2012-7-28,98.9,85.7,74.4,77.0,74.0,72.0,94,71,42,30.14,30.02,4,0,8,67.21
2012-7-29,99.1,85.4,74.1,78.0,71.9,-99.9,93,68,40,30.11,29.96,2,-11,6,0.02
2012-7-30,99.9,86.1,74.7,76.0,73.1,68.0,92,68,37,30.07,29.94,4,0,6,0.00
2012-7-31,99.4,84.8,73.4,76.0,72.2,68.0,93,69,38,30.05,29.94,4,1,11,0.00
2012-8-1,99.4,85.6,74.3,74.0,71.5,67.0,90,66,38,30.03,29.89,3,1,6,0.00
2012-8-2,98.9,85.6,73.9,75.0,72.7,70.0,91,68,40,29.97,29.85,5,1,9,0.00
2012-8-3,99.4,86.0,74.2,75.0,72.1,69.0,90,66,40,29.97,29.87,6,1,9,0.00
2012-8-4,98.9,85.5,74.2,76.0,72.5,66.0,91,68,36,30.05,29.93,4,1,8,0.00
2012-8-5,97.7,84.8,73.8,78.0,73.2,68.0,93,70,39,30.15,30.04,4,0,7,0.00
2012-8-6,96.4,86.1,75.3,75.0,73.0,70.0,89,67,43,30.11,29.96,3,0,5,0.00
2012-8-7,100.2,84.6,72.3,75.0,71.8,69.0,91,68,37,30.02,29.89,4,0,8,0.00
2012-8-8,99.7,84.4,73.9,75.0,72.7,69.0,94,72,39,30.05,29.91,7,0,16,0.44
2012-8-9,100.1,85.0,74.0,78.0,73.7,70.0,95,72,39,30.01,29.86,5,1,6,0.00
2012-8-10,98.5,85.6,76.9,77.0,74.2,69.0,88,71,39,29.92,29.81,5,1,10,0.00
2012-8-11,100.5,84.2,71.9,73.0,68.7,61.0,94,65,29,29.98,29.88,2,0,5,0.00
2012-8-12,100.3,85.7,76.4,78.0,73.2,67.0,93,69,37,30.03,29.91,4,1,8,0.00
2012-8-13,99.4,86.9,76.8,77.0,73.2,70.0,89,66,39,30.04,29.90,6,1,8,0.00
2012-8-14,103.6,88.2,76.8,76.0,72.8,68.0,89,64,33,30.01,29.86,4,1,7,0.00
2012-8-15,100.0,85.5,75.0,76.0,72.5,68.0,91,68,37,30.00,29.89,5,1,7,0.00
2012-8-16,100.9,87.1,76.9,77.0,72.7,66.0,90,66,32,30.05,29.92,3,1,7,0.00
2012-8-17,97.5,84.5,76.4,76.0,72.5,66.0,90,69,38,30.07,29.89,3,0,7,0.00
2012-8-18,89.8,81.0,74.7,76.0,72.2,69.0,88,75,52,29.98,29.87,3,0,7,0.00
2012-8-19,92.6,81.0,72.7,71.0,68.3,64.0,90,68,41,29.98,29.81,5,0,8,0.00
2012-8-20,92.7,79.6,68.0,69.0,63.9,58.0,89,62,33,29.97,29.89,3,0,8,0.00
2012-8-21,86.8,75.3,67.4,71.0,66.2,62.0,89,75,44,30.07,29.97,4,0,7,0.00
2012-8-22,94.4,79.4,68.0,69.0,61.7,53.0,90,60,27,30.12,30.00,7,1,9,0.00
2012-8-23,94.5,78.9,65.6,71.0,65.9,62.0,91,67,37,30.09,29.97,3,1,12,0.00
2012-8-24,91.6,79.8,72.4,77.0,72.4,69.0,91,79,55,30.01,29.88,4,1,15,0.06
2012-8-25,91.6,79.0,73.4,76.0,71.9,70.0,93,80,53,30.01,29.93,7,1,13,0.30
2012-8-26,95.1,80.0,72.2,75.0,71.6,69.0,92,77,44,30.09,29.98,3,0,7,0.02
2012-8-27,94.4,78.5,70.7,78.0,72.1,69.0,93,82,45,30.08,29.92,3,0,6,0.12
2012-8-28,96.3,83.1,72.5,74.0,71.0,67.0,94,70,41,29.95,29.78,7,1,12,0.00
2012-8-29,95.2,84.4,76.4,71.0,67.5,63.0,73,58,37,29.81,29.66,8,2,13,0.00
2012-8-30,85.4,79.4,75.7,74.0,70.2,67.0,88,74,62,29.78,29.62,4,1,13,0.08
2012-8-31,102.8,84.0,71.3,78.0,72.8,68.0,93,72,35,30.04,29.80,8,2,12,4.97
2012-9-1,99.0,82.3,75.0,78.0,75.0,71.0,94,80,44,30.12,30.00,5,1,11,0.17
2012-9-2,99.4,84.5,72.9,78.0,73.4,71.0,94,72,41,30.09,29.94,3,1,8,0.00
2012-9-3,100.0,85.3,74.1,77.0,73.1,69.0,93,70,40,30.05,29.90,3,1,8,0.00
2012-9-4,99.4,85.4,75.0,77.0,73.1,66.0,93,70,37,30.00,29.86,4,1,7,0.00
2012-9-5,98.9,84.5,73.9,76.0,72.1,63.0,93,70,32,29.96,29.83,3,0,5,0.00
2012-9-6,99.6,84.7,73.7,76.0,72.5,68.0,93,69,39,29.99,29.86,3,0,5,0.00
2012-9-7,100.9,84.8,74.3,76.0,72.0,70.0,92,68,37,29.95,29.80,4,0,6,0.00
2012-9-8,79.4,75.7,65.5,74.0,69.0,62.0,88,80,65,30.06,29.83,6,1,10,0.00
2012-9-9,89.2,72.0,57.8,61.0,56.6,49.0,90,63,26,30.15,30.03,5,0,5,0.00
2012-9-10,84.3,65.1,57.9,65.0,58.1,55.0,91,80,41,30.17,30.09,2,0,6,0.00
2012-9-11,90.0,73.8,58.3,64.0,58.3,55.0,90,63,33,30.16,30.04,3,0,8,0.00
2012-9-12,92.9,75.5,64.6,75.0,68.5,60.0,92,80,52,30.12,29.99,4,0,7,0.52
2012-9-13,90.9,76.8,70.5,75.0,71.1,68.0,93,84,54,30.17,30.05,6,1,9,0.09
2012-9-14,89.6,74.7,69.4,74.0,69.4,67.0,94,85,53,30.20,30.10,3,0,4,0.64
2012-9-15,86.7,75.5,70.1,74.0,70.1,68.0,94,84,60,30.19,30.07,3,0,6,0.02
2012-9-16,81.4,72.8,69.0,71.0,68.8,67.0,93,87,71,30.10,29.98,4,0,6,0.27
2012-9-17,71.8,69.2,67.1,69.0,67.2,65.0,94,93,89,29.99,29.82,2,0,8,0.58
2012-9-18,85.4,73.6,65.8,71.0,66.7,64.0,95,81,50,30.08,29.89,5,0,7,0.01
2012-9-19,81.7,69.8,59.5,65.0,57.0,50.0,94,68,34,30.18,30.07,4,0,8,0.01
2012-9-20,86.5,68.8,54.4,62.0,56.2,51.0,94,69,31,30.15,30.02,3,0,6,0.00
2012-9-21,88.1,70.6,55.5,64.0,57.8,53.0,93,68,34,30.08,29.99,2,0,6,0.00
2012-9-22,92.1,74.1,61.1,70.0,63.7,59.0,93,73,40,30.14,30.02,2,0,6,0.00
2012-9-23,93.1,76.9,64.6,73.0,66.5,62.0,93,73,42,30.22,30.13,2,0,4,0.00
2012-9-24,93.9,78.5,66.3,72.0,68.0,64.0,93,73,42,30.19,30.05,3,0,7,0.00
2012-9-25,93.3,79.5,68.8,74.0,68.6,66.0,94,72,43,30.11,29.99,4,1,8,0.00
2012-9-26,91.9,78.1,67.9,73.0,68.1,66.0,94,74,45,30.11,30.00,4,0,9,0.00
2012-9-27,89.8,76.2,65.7,73.0,67.9,64.0,95,77,49,30.13,30.02,3,0,7,0.00
2012-9-28,91.0,77.1,64.8,74.0,67.2,63.0,95,74,42,30.09,29.95,4,0,7,0.00
2012-9-29,75.7,73.5,72.1,73.0,71.6,70.0,95,94,85,29.98,29.76,4,0,8,1.94
2012-9-30,72.0,66.0,61.7,71.0,64.5,60.0,96,94,90,29.79,29.64,9,2,13,2.82
2012-10-1,81.3,68.3,60.1,64.0,58.8,53.0,93,75,40,29.82,29.76,6,1,10,0.00
2012-10-2,80.1,66.3,56.5,63.0,58.2,55.0,94,77,45,29.99,29.82,4,0,7,0.00
2012-10-3,84.4,68.3,55.0,65.0,58.7,54.0,96,75,39,30.10,29.98,3,0,5,0.00
2012-10-4,88.9,72.6,58.7,68.0,63.0,57.0,96,75,47,30.20,30.09,5,1,9,0.00
2012-10-5,89.3,74.0,61.7,71.0,66.2,60.0,96,79,51,30.16,30.00,3,0,8,0.00
2012-10-6,69.4,63.1,52.7,67.0,60.1,49.0,94,90,82,30.18,30.01,5,1,8,0.00
2012-10-7,59.8,53.8,49.5,49.0,46.5,44.0,86,76,59,30.29,30.16,5,1,11,0.00
2012-10-8,65.7,56.2,49.6,53.0,49.7,47.0,93,80,60,30.29,30.14,3,0,6,0.00
2012-10-9,81.9,63.3,48.8,67.0,57.3,47.0,95,82,58,30.16,29.96,3,1,9,0.00
2012-10-10,87.9,75.2,66.0,73.0,68.6,64.0,95,81,54,30.17,30.04,3,0,5,0.00
2012-10-11,90.4,77.2,68.1,73.0,68.5,65.0,96,77,48,30.21,30.12,5,1,9,0.00
2012-10-12,87.2,75.6,64.6,73.0,68.5,63.0,97,80,54,30.24,30.15,3,1,7,0.00
2012-10-13,91.0,77.6,68.5,75.0,69.9,67.0,97,79,50,30.16,29.96,7,2,13,0.00
2012-10-14,88.4,76.3,64.0,77.0,71.3,62.0,94,85,59,30.07,29.95,9,2,13,0.10
2012-10-15,81.3,66.8,56.7,62.0,57.9,53.0,96,76,37,30.12,29.99,3,0,7,0.01
2012-10-16,71.9,62.1,55.6,64.0,58.5,54.0,97,88,68,30.04,29.81,4,0,7,0.03
2012-10-17,89.1,71.3,58.6,75.0,66.3,58.0,97,86,58,29.84,29.62,6,2,11,0.16
2012-10-18,77.3,66.2,53.4,70.0,56.7,46.0,96,75,33,30.00,29.76,3,0,8,0.02
2012-10-19,79.1,60.3,45.0,57.0,46.7,40.0,97,68,25,30.04,29.94,5,0,7,0.00
2012-10-20,86.9,65.8,47.1,60.0,52.3,46.0,95,67,29,30.00,29.87,5,1,10,0.00
2012-10-21,89.8,74.4,64.6,72.0,66.8,60.0,95,79,53,30.03,29.92,5,2,15,0.00
2012-10-22,89.5,75.5,67.1,72.0,68.0,66.0,96,79,50,30.08,29.99,6,2,11,0.00
2012-10-23,86.7,73.3,66.8,71.0,67.0,65.0,97,82,51,30.07,29.97,5,1,7,0.00
2012-10-24,85.3,74.5,67.9,72.0,68.9,67.0,97,84,60,30.07,29.93,4,1,9,0.00
2012-10-25,88.5,76.0,68.7,73.0,70.0,67.0,96,83,53,29.96,29.88,7,1,9,0.00
2012-10-26,72.4,55.7,51.3,70.0,53.7,48.0,98,93,86,30.25,29.95,7,2,14,0.56
2012-10-27,61.2,50.3,41.7,48.0,42.1,39.0,94,76,46,30.29,30.13,6,1,11,0.00
2012-10-28,64.1,48.8,36.6,43.0,39.1,34.0,96,74,34,30.29,30.19,6,1,8,0.00
2012-10-29,66.8,49.9,37.9,45.0,39.8,36.0,95,73,34,30.34,30.18,2,0,6,0.00
2012-10-30,73.8,52.4,38.2,51.0,43.4,37.0,97,76,33,30.19,30.02,3,0,6,0.00
2012-10-31,83.1,63.3,47.6,66.0,56.1,46.0,97,80,50,30.07,29.96,4,0,9,0.00
2012-11-1,86.2,65.6,51.0,67.0,58.5,50.0,97,80,43,30.10,29.98,4,0,7,0.01
2012-11-2,87.0,68.9,58.1,70.0,61.9,57.0,98,81,42,30.10,29.99,4,1,7,0.01
2012-11-3,85.1,68.5,62.0,71.0,64.1,61.0,98,87,54,30.14,30.02,4,1,11,0.77
2012-11-4,79.6,66.4,58.1,66.0,61.5,57.0,98,86,55,30.14,30.04,4,0,5,0.01
2012-11-5,78.1,63.5,53.0,64.0,58.1,50.0,97,84,57,30.08,29.96,3,0,5,0.00
2012-11-6,69.9,55.2,44.6,50.0,46.7,43.0,96,76,42,30.18,30.07,3,0,8,0.00
2012-11-7,74.2,56.9,45.1,54.0,46.8,42.0,97,74,34,30.21,30.11,2,0,7,0.01
2012-11-8,76.7,59.6,45.2,56.0,48.7,42.0,95,71,39,30.26,30.11,7,1,10,0.00
2012-11-9,82.1,66.6,55.0,62.0,56.9,52.0,93,74,45,30.19,30.07,9,2,12,0.00
2012-11-10,82.3,69.4,59.2,65.0,61.6,58.0,96,78,51,30.14,29.99,13,3,13,0.00
2012-11-11,83.0,70.9,55.9,70.0,64.9,53.0,92,82,63,30.21,29.91,7,2,12,0.02
2012-11-12,61.3,51.9,39.0,54.0,42.3,34.0,94,73,39,30.51,30.21,7,1,11,0.01
2012-11-13,58.9,45.7,35.5,41.0,35.8,31.0,92,71,35,30.56,30.38,4,0,7,0.00
2012-11-14,62.6,48.8,38.3,40.0,37.3,32.0,92,68,33,30.46,30.32,3,0,8,0.00
2012-11-15,63.1,46.7,34.4,42.0,36.0,33.0,94,71,33,30.39,30.27,3,0,6,0.00
2012-11-16,64.4,47.1,35.4,44.0,36.8,33.0,92,71,35,30.43,30.33,4,0,9,0.00
2012-11-17,68.4,49.5,35.3,45.0,38.8,33.0,94,71,32,30.45,30.33,5,0,6,0.00
2012-11-18,71.4,51.8,37.4,47.0,41.1,36.0,95,71,31,30.39,30.27,4,0,7,0.00
2012-11-19,73.4,55.3,41.9,50.0,45.0,40.0,94,73,34,30.33,30.19,4,0,5,0.00
2012-11-20,79.2,60.7,46.6,61.0,53.4,44.0,97,79,46,30.27,30.15,3,0,5,0.00
2012-11-21,78.2,60.2,48.1,61.0,52.3,47.0,96,78,40,30.31,30.19,3,0,5,0.00
2012-11-22,77.5,60.3,44.7,59.0,51.9,43.0,95,76,45,30.25,30.13,10,1,12,0.00
2012-11-23,67.2,57.6,46.5,62.0,53.9,40.0,94,88,76,30.39,30.19,6,1,9,0.01
2012-11-24,59.4,45.2,34.8,39.0,34.5,31.0,92,69,39,30.45,30.21,3,0,7,0.00
2012-11-25,73.2,53.9,33.4,57.0,44.7,32.0,94,75,42,30.21,30.00,7,2,10,0.00
2012-11-26,82.5,69.4,59.0,66.0,63.1,57.0,97,82,55,30.10,29.94,6,2,9,0.01
2012-11-27,63.9,53.2,40.8,61.0,47.6,39.0,94,82,61,30.39,30.10,5,1,9,0.00
2012-11-28,63.3,47.0,35.3,44.0,38.4,34.0,96,76,38,30.52,30.35,3,0,6,0.01
2012-11-29,70.1,51.0,34.0,50.0,42.4,33.0,95,75,46,30.37,30.21,5,1,9,0.00
2012-11-30,75.2,61.1,47.1,63.0,56.2,45.0,97,85,66,30.26,30.13,6,1,11,0.00
2012-12-1,80.6,69.6,60.3,67.0,62.7,58.0,96,80,59,30.20,30.07,7,2,9,0.00
2012-12-2,83.4,71.8,66.1,69.0,64.9,61.0,96,80,48,30.23,30.10,6,2,11,0.00
2012-12-3,76.7,69.2,63.7,69.0,65.8,62.0,96,89,76,30.14,30.03,7,2,12,0.03
2012-12-4,76.8,67.8,61.9,69.0,65.1,60.0,95,91,73,30.19,30.07,6,1,12,0.07
2012-12-5,62.6,60.7,53.9,61.0,58.7,52.0,95,93,87,30.25,30.10,3,0,7,0.01
2012-12-6,64.4,58.4,53.6,57.0,54.9,52.0,95,88,73,30.09,29.95,5,0,7,0.01
2012-12-7,73.8,61.9,53.8,65.0,58.9,52.0,96,90,70,29.98,29.86,3,0,5,0.01
2012-12-8,77.1,69.0,63.9,69.0,65.1,63.0,97,88,67,29.95,29.84,5,1,11,0.00
2012-12-9,80.0,69.6,57.0,68.0,65.0,55.0,97,86,63,29.92,29.78,7,2,9,0.78
2012-12-10,56.4,44.0,34.7,55.0,34.9,26.0,94,72,47,30.12,29.87,8,1,11,0.08
2012-12-11,51.8,38.4,29.8,33.0,28.4,25.0,87,70,39,30.25,30.12,4,1,8,0.00
2012-12-12,56.0,40.0,27.6,34.0,25.7,12.0,92,64,18,30.38,30.25,4,0,8,0.00
2012-12-13,63.0,42.8,28.5,38.0,30.6,26.0,94,68,26,30.37,30.24,3,0,6,0.00
2012-12-14,63.0,51.2,36.3,59.0,43.9,33.0,90,77,50,30.25,29.96,5,1,11,0.00
2012-12-15,68.2,64.9,61.6,66.0,62.7,59.0,96,92,88,29.98,29.87,6,1,11,0.16
2012-12-16,67.8,64.2,57.7,67.0,62.9,57.0,98,95,88,29.89,29.75,4,1,9,0.42
2012-12-17,66.1,55.6,41.6,60.0,47.1,38.0,97,77,37,29.93,29.80,7,1,8,0.01
2012-12-18,77.3,57.5,39.4,56.0,45.8,37.0,94,70,31,29.95,29.84,6,2,9,0.00
2012-12-19,79.3,68.3,59.0,68.0,63.1,56.0,96,84,61,29.89,29.71,10,4,15,0.00
2012-12-20,71.9,48.6,32.6,68.0,31.2,16.0,91,54,25,30.42,29.73,7,2,17,0.26
2012-12-21,62.6,44.2,27.2,36.0,25.1,16.0,85,55,17,30.51,30.35,5,0,7,0.00
2012-12-22,68.5,50.4,30.3,49.0,36.9,28.0,92,64,28,30.39,30.15,7,2,11,0.00
2012-12-23,75.1,63.9,56.2,62.0,56.9,49.0,91,79,59,30.14,29.88,10,3,15,0.00
2012-12-24,67.2,55.1,44.5,59.0,43.3,34.0,95,69,30,30.00,29.81,4,0,6,0.00
2012-12-25,66.4,51.2,34.7,65.0,47.3,30.0,96,87,68,30.03,29.47,11,3,18,1.26
2012-12-26,42.3,35.2,29.5,31.0,28.7,26.0,90,78,57,30.26,30.02,5,1,10,0.00
2012-12-27,48.0,39.2,27.2,45.0,35.2,25.0,94,86,69,30.17,29.89,3,0,6,0.07
2012-12-28,48.8,45.6,40.3,48.0,43.0,35.0,96,90,78,30.16,29.80,7,1,11,0.05
2012-12-29,48.4,37.9,29.7,34.0,26.5,20.0,86,67,36,30.46,30.17,6,1,10,0.01
2012-12-30,49.5,39.1,26.4,32.0,28.0,24.0,91,67,41,30.51,30.29,3,0,7,0.00
2012-12-31,57.5,51.3,42.4,56.0,46.1,32.0,96,83,65,30.30,29.97,6,2,12,0.48
2013-1-1,55.2,49.6,43.8,54.0,47.0,39.0,96,90,83,30.23,29.98,5,2,8,0.15